This is the latest recevied weather packets stored in our database for station/object WP4NYS-13. If no packets are shown the sender has not sent any weather packets the latest 10 day(s).
| Time | Temp. | Humidity | Pressure | Rain* | Wind** | Luminosity | Snow |
|---|---|---|---|---|---|---|---|
| 1777850127 | 23.89° C | 47% | 1017.2 hPa | 0 mm | - | - | - |
| 1777849824 | 24.44° C | 47% | 1017.3 hPa | 0 mm | - | - | - |
| 1777849520 | 24.44° C | 45% | 1017.2 hPa | 0 mm | - | - | - |
| 1777849218 | 24.44° C | 45% | 1017 hPa | 0 mm | - | - | - |
| 1777848915 | 25° C | 44% | 1016.9 hPa | 0 mm | - | - | - |
| 1777848609 | 25° C | 45% | 1016.8 hPa | 0 mm | - | - | - |
| 1777848307 | 25° C | 44% | 1016.8 hPa | 0 mm | - | - | - |
| 1777848005 | 25.56° C | 42% | 1016.6 hPa | 0 mm | - | - | - |
| 1777847703 | 25.56° C | 39% | 1016.5 hPa | 0 mm | - | - | - |
| 1777847398 | 26.11° C | 37% | 1016.7 hPa | 0 mm | - | - | - |
| 1777847097 | 26.11° C | 38% | 1016.8 hPa | 0 mm | - | - | - |
| 1777846794 | 26.11° C | 38% | 1016.6 hPa | 0 mm | - | - | - |
| 1777846492 | 26.11° C | 37% | 1016.6 hPa | 0 mm | - | - | - |
| 1777846189 | 26.11° C | 37% | 1016.7 hPa | 0 mm | - | - | - |
| 1777845885 | 26.67° C | 37% | 1016.8 hPa | 0 mm | - | - | - |
| 1777845582 | 26.67° C | 37% | 1016.7 hPa | 0 mm | - | - | - |
| 1777845279 | 26.67° C | 37% | 1016.8 hPa | 0 mm | - | - | - |
| 1777844977 | 26.67° C | 36% | 1016.7 hPa | 0 mm | - | - | - |
| 1777844675 | 26.67° C | 35% | 1016.9 hPa | 0 mm | - | - | - |
| 1777844372 | 26.67° C | 35% | 1016.8 hPa | 0 mm | - | - | - |
| 1777844070 | 26.67° C | 35% | 1016.8 hPa | 0 mm | - | - | - |
| 1777843766 | 26.67° C | 35% | 1016.7 hPa | 0 mm | - | - | - |
| 1777843463 | 26.67° C | 37% | 1016.7 hPa | 0 mm | - | - | - |
| 1777843161 | 26.67° C | 35% | 1016.8 hPa | 0 mm | - | - | - |
| 1777842857 | 26.67° C | 35% | 1016.8 hPa | 0 mm | - | - | - |
* Rain latest hour (hover to see other rain measurements)
** Current wind speed in m/s (hover to see current wind gust speed)